This is the latest recevied weather packets stored in our database for station/object KC4GS-13. If no packets are shown the sender has not sent any weather packets the latest 10 day(s).
| Time | Temp. | Humidity | Pressure | Rain* | Wind** | Luminosity | Snow |
|---|---|---|---|---|---|---|---|
| 1788449283 | 33.33° C | 58% | 1019.7 hPa | 0 mm | - | 155 W/m² | - |
| 1788448978 | 32.78° C | 59% | 1019.6 hPa | 0 mm | - | 202 W/m² | - |
| 1788448678 | 33.33° C | 59% | 1019.9 hPa | 0 mm | - | 176 W/m² | - |
| 1788448374 | 32.78° C | 60% | 1019.6 hPa | 0 mm | - | 524 W/m² | - |
| 1788448073 | 32.78° C | 62% | 1019.7 hPa | 0 mm | - | 213 W/m² | - |
| 1788447768 | 32.22° C | 62% | 1019.7 hPa | 0 mm | - | 222 W/m² | - |
| 1788447464 | 31.67° C | 63% | 1019.7 hPa | 0 mm | - | 383 W/m² | - |
| 1788447159 | 31.11° C | 63% | 1019.7 hPa | 0 mm | - | 95 W/m² | - |
| 1788446857 | 31.11° C | 64% | 1019.8 hPa | 0 mm | - | 81 W/m² | - |
| 1788446553 | 31.11° C | 64% | 1019.8 hPa | 0 mm | - | 189 W/m² | - |
| 1788446249 | 31.11° C | 64% | 1019.5 hPa | 0 mm | - | 154 W/m² | - |
| 1788445945 | 30.56° C | 64% | 1019.6 hPa | 0 mm | - | 78 W/m² | - |
| 1788445641 | 30.56° C | 63% | 1019.7 hPa | 0 mm | - | 84 W/m² | - |
| 1788445337 | 30° C | 65% | 1019.5 hPa | 0 mm | - | 117 W/m² | - |
| 1788445031 | 30° C | 67% | 1019.5 hPa | 0 mm | - | 107 W/m² | - |
| 1788444727 | 30° C | 71% | 1019.7 hPa | 0 mm | - | 78 W/m² | - |
| 1788444417 | 30° C | 71% | 1019.5 hPa | 0 mm | - | 85 W/m² | - |
| 1788444111 | 29.44° C | 72% | 1019.5 hPa | 0 mm | - | 108 W/m² | - |
| 1788443807 | 29.44° C | 73% | 1019.5 hPa | 0 mm | - | 69 W/m² | - |
| 1788443502 | 28.89° C | 74% | 1019.7 hPa | 0 mm | - | 68 W/m² | - |
| 1788443201 | 28.89° C | 75% | 1019.4 hPa | 0 mm | - | 67 W/m² | - |
| 1788442897 | 28.33° C | 77% | 1019.7 hPa | 0 mm | - | 62 W/m² | - |
| 1788442595 | 27.78° C | 78% | 1019.8 hPa | 0 mm | - | 62 W/m² | - |
| 1788442290 | 27.78° C | 79% | 1019.8 hPa | 0 mm | - | 63 W/m² | - |
| 1788441984 | 27.22° C | 80% | 1020 hPa | 0 mm | - | 60 W/m² | - |
* Rain latest hour (hover to see other rain measurements)
** Current wind speed in m/s (hover to see current wind gust speed)